356  
ASUS42 KCHS 170427  
RWRCHS  
 
REGIONAL WEATHER ROUNDUP  
NATIONAL WEATHER SERVICE CHARLESTON SC  
1200 AM EDT WED JUL 17 2019  
 
NOTE: "FAIR" INDICATES FEW OR NO CLOUDS BELOW 12,000 FEET WITH NO  
SIGNIFICANT WEATHER AND/OR S TO VISIBILITY
.  
 
NOT ALL STATIONS ARE QUALITY CONTROLLED. USE DATA WITH CAUTION,  
ESPECIALLY DEWPOINT OBSERVATIONS.  
 
SCZ027-030-031-034>040-042>050-170500-   
..SOUTHEAST SOUTH CAROLINA
 
 
 
CITY SKY/WX TMP DP RH WIND PRES REMARKS
 
N CHARLESTON MOCLDY 80 76 87 S5 30.11S  
WATERFRONT PRK N/A 85 79 82 S5 29.96S HX 98  
MOUNT PLEASANT FAIR 79 79 100 CALM 30.11S  
JOHNS ISLAND FAIR 82 79 89 S5 30.11S HX 93  
PINOPOLIS N/A 82 79 89 VRB3 30.05R HX 93  
MONCKS CORNER FAIR 79 79 100 MISG 30.11S  
SUMMERVILLE FAIR 79 77 94 CALM 30.12S  
BEAUFORT MCAS FAIR 83 79 88 SW3 30.12R HX 94  
BEAUFORT ARPT FAIR 82 77 83 CALM 30.12R HX 91  
HILTON HEAD IS N/A N/A N/A N/A MISG N/A  
WALTERBORO FAIR 79 77 94 CALM 30.13S  
ALLENDALE FAIR 82 77 83 CALM 30.11R HX 91  
   
..SOUTHERN MIDLANDS AND PEE DEE
 
 
 
CITY SKY/WX TMP DP RH WIND PRES REMARKS
 
GEORGETOWN FAIR 77 75 94 CALM 30.12S  
KINGSTREE FAIR 77 77 100 CALM 30.11S  
ORANGEBURG FAIR 81 74 79 S3 30.12R  
BARNWELL FAIR 82 77 83 S5 30.12R HX 91  
AIKEN CLOUDY 81 72 74 S3 30.15S  
MANNING FAIR 81 77 89 SW5 30.11F  
COLUMBIA FAIR 83 74 74 S5 30.10R  
SUMTER FAIR 82 75 78 S5 30.11R  
FLORENCE FAIR 83 76 79 S6 30.11R HX 91  
MYRTLE BEACH FAIR 83 78 85 S7 30.12R HX 93  
N MYRTLE BEACH FAIR 83 78 85 S8 30.11R HX 93  
 

 
 
GAZ063-065-086>088-099>101-113>116-118-119-134>141-150-170500-   
..SOUTHEAST GEORGIA
 
 
 
CITY SKY/WX TMP DP RH WIND PRES REMARKS
 
SAVANNAH ARPT MOCLDY 83 78 85 S5 30.12R HX 93  
HUNTER AAF FAIR 84 79 86 S5 30.10R HX 96  
FORT STEWART NOT AVBL  
STATESBORO FAIR 82 73 75 SE3 30.12R  
SYLVANIA MOCLDY 83 77 83 CALM 30.13R HX 91  
CLAXTON N/A 81 77 88 CALM 30.12S  
MILLEN CLOUDY 82 74 77 S5 30.11S  
   
..CSRA, CENTRAL AND FAR SOUTHEAST GEORGIA
 
 
 
CITY SKY/WX TMP DP RH WIND PRES REMARKS
 
THOMSON FAIR 78 75 90 CALM 30.12S  
AUGUSTA-BUSH CLOUDY 86 70 58 SW3 30.09R THUNDER HX 90  
AUGUSTA-DANIEL FAIR 88 68 51 CALM 30.12R HX 91  
SWAINSBORO FAIR 81 73 78 CALM 30.13S  
VIDALIA FAIR 81 72 74 SW5 30.13S  
EASTMAN FAIR 82 71 70 W3 30.16R  
HAZLEHURST FAIR 82 71 69 CALM 30.12S  
ALMA FAIR 78 72 81 CALM 30.13R  
WAYCROSS FAIR 81 69 66 SW3 30.13R  
JESUP FAIR 81 75 83 CALM 30.13S  
BAXLEY FAIR 77 77 100 CALM 30.13S  
BRUNSWICK FAIR 79 75 87 CALM 30.12S  
SAINT SIMONS FAIR 86 77 74 S5 30.12R HX 97  
 

 
 
SCZ027-028-034-036>038-045-046-048>050-GAZ119-141-170500-   
..LAKE AND SUPPLEMENTAL COASTAL OBSERVATIONS
 
 
 
STATION/POSITION TIME TEMP WIND PRES WAVE SWELL
 
AIR SEA DIR/SP/G HT/PER HT/PER/DIR  
(UTC) (F) (DEG/KT/KT) (MB) (FT/S) (FT/S/D)  
WINYAH BAY 0345 83 210/ 3 1019.0S  
LAKE MURRAY 0320 86 CALM / 1 1018.3R  
ACE BASIN NERRS 0345 85 CALM 1020.0R  
FORT PULASKI 0342 84 87 180/ 2/ 4 1020.3R  
SAPELO ISLAND 0400 83 190/ 2 1020.0  
 

 
 
ANZ835-935-AMZ111-154-330-350-352-354-370-450-454-472-170500-   
..C-MAN AND BUOY OBSERVATIONS
 
 
 
STATION/POSITION TIME TEMP WIND PRES WAVE SWELL
 
AIR SEA DIR/SP/G HT/PER HT/PER/DIR  
(UTC) (F) (DEG/KT/KT) (MB) (FT/S) (FT/S/D)  
BUOY 41004 0410 85 86 190/ 10/ 12 1019.6  
BUOY 41008 0350 84 85 230/ 8/ 8 1020.0R 1/10 2/130/10  
FOLLY BEACH CMAN 0400 85 180/ 11/ 11 1020.2R  
CAPERS NEARSHORE 0408 85 87 200/ 10/ 14 1019.6R  
FRIPP NEARSHORE 0408 86 87 180/ 10/ 12 1019.7R  
 
 
STATION/POSITION TIME TEMP WIND PRES WAVE SWELL
 
AIR SEA DIR/SP/G HT/PER HT/PER/DIR  
(UTC) (F) (DEG/KT/KT) (MB) (FT/S) (FT/S/D)  
5E ST. MARYS GA 0400 83 N/A 2/ 3  
FRYING PAN BUOY 0410 85 85 190/ 8/ 8 1019.7  
BUOY 41025 0410 85 85 190/ 10/ 12 1019.2  
CAPE LOOKOUT NC 0400 83 220/ 7/ 8 1019.8R  
BUOY 41002 0410 83 84 210/ 6/ 8 1021.3  
BUOY 41010 0410 85 86 150/ 8/ 10 N/A  
ST AUGUSTINE FL 0400 82 77 210/ 6/ 7 1020.5R  
 

 
 
 
CLICK HERE TO GO TO PREVIOUS BULLETINS.

The Nexlab SC Page
The Nexlab GA Page Main Text Page